Flag for Germany Weather past 2 weeks in Friedrichshafen, Baden-Württemberg, Germany

Now
88 °F

Sunny.


Feels Like: 88 °F
Forecast: 67 / 91 °F
Wind: 8 mph from North

Location: Friedrichshafen Airport

Current Time: Jul 3, 2015 at 7:29:55 PM

Latest Report: Jul 3, 2015 at 6:50 PM


Visibility: 10 mi

Pressure: 30.24 "Hg

Humidity: 40%

Dew point: 61 °F

Location of FriedrichshafenLocation

Historic Weather in Friedrichshafen — Graph

°F

Friedrichshafen temperature yesterday

Maximum temperature yesterday: 93 °F (at 5:20 PM)
Minimum temperature yesterday: 61 °F (at 4:50 AM)
Average temperature yesterday: 77 °F

Past Weeks' High & Low Weather Summary

 TemperatureHumidityPressure
High93 °F (Jul 2, 5:20 PM)93% (Jun 24, 5:50 AM)30.30 "Hg (Jun 24, 5:50 AM)
Low45 °F (Jun 24, 4:50 AM)21% (Jul 2, 5:50 PM)29.74 "Hg (Jun 22, 9:50 PM)
Average65 °F62%30.12 "Hg
* Reported Jun 18 6:20 PM — Jul 3 6:20 PM, Friedrichshafen, Weather by CustomWeather, © 2015

Note: Actual official high and low records may vary slightly from our data, if they occured in-between our weather recording intervals... More about our weather records

Advertising

Friedrichshafen weather history for previous 24 hours

 ConditionsComfort  
Time TempWeatherWind HumidityBarometerVisibility
6:20 PM
Fri, Jul 3
90 °FSunny.9 mph36%30.21 "Hg10 mi
5:50 PM93 °FSunny.9 mph32%30.21 "Hg10 mi
5:20 PM93 °FSunny.7 mph32%30.18 "Hg10 mi
4:50 PM93 °FSunny.7 mph32%30.21 "Hg10 mi
4:20 PM91 °FSunny.6 mph36%30.21 "Hg10 mi
3:50 PM91 °FSunny.3 mph34%30.21 "Hg10 mi
3:20 PM91 °FPassing clouds.5 mph32%30.24 "HgN/A
2:50 PM93 °FSunny.2 mph28%30.24 "Hg10 mi
2:20 PM91 °FSunny.2 mph38%30.24 "Hg10 mi
1:50 PM90 °FSunny.2 mph41%30.27 "Hg10 mi
1:20 PM86 °FSunny.3 mph46%30.27 "Hg10 mi
12:50 PM84 °FPassing clouds.7 mph48%30.27 "HgN/A
12:20 PM84 °FPassing clouds.7 mph51%30.27 "HgN/A
11:50 AM84 °FSunny.7 mph51%30.27 "Hg10 mi
11:20 AM86 °FSunny.1 mph43%30.27 "Hg10 mi
10:50 AM84 °FSunny.1 mph43%30.30 "Hg10 mi
10:20 AM82 °FSunny.3 mph48%30.30 "Hg10 mi
9:50 AM81 °FSunny.2 mph51%30.30 "Hg10 mi
9:20 AM81 °FSunny.No wind51%30.27 "Hg10 mi
8:50 AM77 °FSunny.No wind57%30.27 "Hg10 mi
8:20 AM75 °FSunny.No wind61%30.27 "Hg10 mi
7:50 AM73 °FSunny.2 mph65%30.27 "Hg10 mi
7:20 AM70 °FSunny.1 mph78%30.27 "Hg10 mi
6:50 AM68 °FSunny.No wind78%30.27 "Hg10 mi
6:20 AM64 °FClear.1 mph88%30.27 "Hg10 mi
5:50 AM64 °FClear.1 mph83%30.24 "Hg10 mi
5:20 AM64 °FClear.1 mph88%30.24 "Hg10 mi
5:02 AM66 °FMild.1 mph83%30.24 "Hg6 mi
4:55 AM66 °FMild.No wind83%30.24 "HgN/A
4:20 AM66 °FMild.2 mph83%30.24 "HgN/A
3:50 AM66 °FMild.2 mph83%30.24 "HgN/A
3:20 AM66 °FMild.No wind83%30.24 "HgN/A
2:50 AM66 °FMild.No wind83%30.24 "HgN/A
2:20 AM68 °FMild.2 mph78%30.21 "HgN/A
1:50 AM68 °FMild.2 mph78%30.21 "HgN/A
1:20 AM70 °FMild.2 mph73%30.21 "HgN/A
12:50 AM72 °FClear.2 mph69%30.21 "Hg10 mi
12:20 AM72 °FMild.2 mph69%30.21 "HgN/A
11:50 PM
Thu, Jul 2
72 °FClear.3 mph73%30.21 "Hg10 mi
11:20 PM73 °FClear.No wind65%30.21 "Hg10 mi
10:50 PM73 °FMild.No wind65%30.21 "HgN/A
10:20 PM75 °FSprinkles. Clear.No wind61%30.18 "HgN/A
9:50 PM75 °FSunny.No wind61%30.18 "Hg10 mi
9:20 PM77 °FSunny.1 mph51%30.15 "Hg10 mi
8:50 PM79 °FSunny.2 mph51%30.15 "Hg10 mi
8:20 PM82 °FSunny.1 mph45%30.15 "Hg10 mi
7:50 PM84 °FSunny.3 mph37%30.15 "Hg10 mi
7:20 PM88 °FSunny.5 mph38%30.15 "Hg10 mi
Weather by CustomWeather, © 2015

See weather overviewHow to use our weather pages